Weather History for Renton, WA

Change the Weather History Date:

Saturday, August 10, 2013

  Actual Average Record
Temperature  
Mean Temperature 68 °F -  
Max Temperature 79 °F 77 °F 91 °F (1996)
Min Temperature 60 °F 57 °F 55 °F (2008)
Cooling Degree Days 4    
Growing Degree Days 18 (Base 50)    
Moisture  
Dew Point 60 °F    
Average Humidity 75    
Maximum Humidity 93    
Minimum Humidity 56    
Precipitation  
Precipitation 0.08 in - - ()
Sea Level Pressure  
Sea Level Pressure 29.98 in    
Wind  
Wind Speed 4 mph (South)    
Max Wind Speed 9 mph    
Max Gust Speed -    
Visibility 6 miles    
Events Rain , Thunderstorm    
Averages and records for this station are not official NWS values.
T = Trace of Precipitation, MM = Missing Value Source: NWS Daily Summary

Daily Weather History Graph

Daily Weather History Graph

Search for Another Location

Airport:

Trip Planner

Search our weather history database for the weather conditions in past years. The results will help you decide how hot, cold, wet, or windy it might be!

Date:

Astronomy

Aug. 10, 2013 Rise Set
Actual Time 5:58 AM PDT 8:28 PM PDT
Civil Twilight 5:24 AM PDT 9:02 PM PDT
Nautical Twilight 4:40 AM PDT 9:46 PM PDT
Astronomical Twilight 3:50 AM PDT 10:35 PM PDT
Moon 10:12 AM PDT (8/10) 9:50 PM PDT (8/10)
Length of Visible Light 15h 38m
Length of Day
14h 29m
Waxing Crescent, 15% of the Moon is Illuminated
Aug 10
Waxing Crescent
Aug 14
First Quarter
Aug 20
Full
Aug 28
Last Quarter
Sep 5
New

Hourly Weather History & Observations

Time (PDT) Temp. Dew Point Humidity Pressure Visibility Wind Dir Wind Speed Gust Speed Precip Events Conditions
12:09 AM 69.8 °F 57.2 °F 64% 29.92 in 7.0 mi South 5.8 mph - N/A Thunderstorm Clear
12:32 AM 69.8 °F 59.0 °F 68% 29.94 in 5.0 mi South 5.8 mph - 0.00 in Rain Light Rain
12:48 AM 66.2 °F 60.8 °F 83% 29.95 in 6.0 mi SSE 3.5 mph - 0.03 in Rain , Thunderstorm Light Rain
12:53 AM 66.9 °F 61.0 °F 81% 29.96 in 6.0 mi WSW 3.5 mph - 0.03 in Rain , Thunderstorm Light Rain
1:50 AM 66.2 °F 60.8 °F 83% 29.94 in 4.0 mi SE 3.5 mph - 0.03 in Rain Light Rain
1:53 AM 64.9 °F 61.0 °F 87% 29.96 in 5.0 mi Calm Calm - 0.03 in Rain Light Rain
2:53 AM 64.9 °F 63.0 °F 93% 29.92 in 6.0 mi Calm Calm - 0.02 in   Clear
3:53 AM 64.9 °F 62.1 °F 90% 29.92 in 6.0 mi SSW 5.8 mph - N/A   Clear
4:53 AM 62.1 °F 59.0 °F 90% 29.94 in 6.0 mi SSE 9.2 mph - N/A   Clear
5:53 AM 61.0 °F 57.0 °F 87% 29.96 in 7.0 mi South 6.9 mph - N/A   Clear
6:22 AM 60.8 °F 57.2 °F 88% 29.96 in 7.0 mi SSE 4.6 mph - N/A   Mostly Cloudy
6:53 AM 61.0 °F 57.0 °F 87% 29.99 in 5.0 mi Calm Calm - 0.00 in Rain Light Rain
7:19 AM 60.8 °F 57.2 °F 88% 29.97 in 5.0 mi SSE 4.6 mph - 0.00 in   Partly Cloudy
7:53 AM 62.1 °F 57.9 °F 86% 29.99 in 5.0 mi SSE 4.6 mph - 0.00 in   Clear
8:53 AM 64.9 °F 60.1 °F 84% 30.01 in 5.0 mi South 8.1 mph - N/A   Haze
9:10 AM 64.4 °F 60.8 °F 88% 30.00 in 5.0 mi SSE 5.8 mph - N/A   Mostly Cloudy
9:53 AM 64.0 °F 59.0 °F 84% 30.02 in 5.0 mi SSW 6.9 mph - N/A   Overcast
10:53 AM 68.0 °F 59.0 °F 73% 30.02 in 5.0 mi SSE 6.9 mph - N/A   Overcast
11:53 AM 66.9 °F 59.0 °F 76% 30.02 in 5.0 mi South 3.5 mph - N/A   Overcast
12:00 PM 69.8 °F 59.0 °F 68% 30.00 in 5.0 mi South 5.8 mph - N/A   Mostly Cloudy
12:09 PM 69.8 °F 59.0 °F 68% 30.00 in 5.0 mi South 6.9 mph - N/A   Partly Cloudy
12:53 PM 72.0 °F 60.1 °F 66% 30.01 in 10.0 mi South 5.8 mph - N/A   Clear
1:53 PM 75.0 °F 61.0 °F 62% 30.00 in 6.0 mi SE 4.6 mph - N/A   Clear
2:53 PM 75.9 °F 62.1 °F 62% 29.98 in 6.0 mi Calm Calm - N/A   Clear
3:53 PM 77.0 °F 60.1 °F 56% 29.96 in 10.0 mi West 5.8 mph - N/A   Clear
4:53 PM 77.0 °F 60.1 °F 56% 29.97 in 6.0 mi Variable 3.5 mph - N/A   Clear
5:53 PM 75.0 °F 59.0 °F 57% 29.96 in 6.0 mi WSW 4.6 mph - N/A   Clear
6:53 PM 75.0 °F 61.0 °F 62% 29.96 in 6.0 mi Calm Calm - N/A   Clear
7:53 PM 73.9 °F 61.0 °F 64% 29.99 in 6.0 mi Calm Calm - N/A   Clear
8:53 PM 73.9 °F 61.0 °F 64% 29.99 in 7.0 mi WSW 3.5 mph - N/A   Clear
9:53 PM 73.0 °F 61.0 °F 66% 30.01 in 7.0 mi Calm Calm - 0.00 in Rain Light Rain
10:53 PM 66.9 °F 57.9 °F 73% 30.02 in 7.0 mi South 5.8 mph - 0.00 in   Partly Cloudy
11:53 PM 64.0 °F 57.0 °F 78% 30.03 in 7.0 mi SE 3.5 mph - 0.00 in   Partly Cloudy